TOM7RT LGKF-EGGD

Flight info

Callsign TOM7RT
Flight time N/A
Altitude 36000
Route ROTSA UN731 YNN UL611 TUMBO DCT OVVER DCT RODON DCT VAKSU DCT PEVAL/N0446F380 DCT MOBDO DCT SOTOV P66 KPT L608 KUNOD DCT LIRSU DCT DENUT L610 KOPUL Q63 ICTAM
Aircraft B38M/M-SDE1FGHILORVWXY/HB1

Departure

Time 2026-04-28 18:21
Airport Kefallinia Airport (LGKF)

Arrival

Time N/A
Airport Bristol Airport (EGGD)
Time Latitude Longitude Altitude Speed Heading
2026-04-28 18:10 38.11852 20.50442 59 ft 0 kts 56°
2026-04-28 18:15 38.11846 20.50430 50 ft 4 kts 59°
2026-04-28 18:15 38.11834 20.50399 53 ft 4 kts 75°
2026-04-28 18:15 38.11833 20.50369 54 ft 4 kts 117°
2026-04-28 18:15 38.11842 20.50357 53 ft 1 kts 162°
2026-04-28 18:18 38.11841 20.50358 52 ft 1 kts 162°
2026-04-28 18:18 38.11830 20.50360 53 ft 3 kts 180°
2026-04-28 18:18 38.11812 20.50360 52 ft 6 kts 179°
2026-04-28 18:19 38.11736 20.50319 57 ft 12 kts 196°
2026-04-28 18:19 38.11649 20.50349 57 ft 16 kts 150°
2026-04-28 18:19 38.11543 20.50431 54 ft 20 kts 144°
2026-04-28 18:19 38.11417 20.50543 56 ft 23 kts 146°
2026-04-28 18:20 38.11304 20.50620 51 ft 6 kts 152°
2026-04-28 18:20 38.11302 20.50634 53 ft 0 kts 60°
2026-04-28 18:20 38.11307 20.50633 53 ft 1 kts 358°
2026-04-28 18:20 38.11330 20.50615 54 ft 11 kts 329°
2026-04-28 18:21 38.11627 20.50366 59 ft 93 kts 326°
2026-04-28 18:21 38.12376 20.49733 62 ft 160 kts 325°
2026-04-28 18:21 38.13334 20.48885 703 ft 169 kts 323°
2026-04-28 18:21 38.14292 20.48018 1629 ft 168 kts 323°
2026-04-28 18:22 38.15298 20.47110 2158 ft 188 kts 324°
2026-04-28 18:22 38.16426 20.46095 2629 ft 211 kts 324°
2026-04-28 18:22 38.17721 20.44930 3061 ft 243 kts 324°
2026-04-28 18:22 38.19152 20.43644 3805 ft 261 kts 324°
2026-04-28 18:23 38.20646 20.42301 4742 ft 267 kts 324°
2026-04-28 18:23 38.22173 20.40929 5808 ft 271 kts 324°
2026-04-28 18:23 38.23733 20.39525 6707 ft 279 kts 324°
2026-04-28 18:23 38.25330 20.38088 7665 ft 283 kts 324°
2026-04-28 18:24 38.26949 20.36630 8594 ft 288 kts 324°
2026-04-28 18:24 38.28043 20.35645 9197 ft 291 kts 324°
2026-04-28 18:24 38.30282 20.33626 10389 ft 299 kts 324°